Content
SEND FEEDBACK

Daily
Averages
Monthly
Summary
South Korea

MASAN, SOUTH KOREA


Home > Asia > South Korea
Elevation: 20 feet     Latitude: 35 11N     Longitude: 128 34E

WEATHER
 
SELECT A DAY
Number of Records: 173,261;   Date Range: 7/1/96 - 8/31/14
 
SHARE

PRINT THIS DATA

[ ← Previous Day ]
WEATHER ALMANAC - FEBRUARY 1, 2013
[ Next Day → ]
[ °C ]   °F
Weather ElementAverageHighLow
Temperature52.1 °F55.4 °F (2:00 pm)44.6 °F (3:00 am)
Dewpoint48.3 °F53.6 °F (7:00 pm)41 °F (1:00 am)
Humidity86.9 %94 % (7:00 pm)76 % (1:00 am)
Barometer30.11 in30.35 in (1:00 am)29.95 in (3:17 pm)
Wind Speed11.9 mph28.8 mph (2:36 pm)
Wind Gust42.6 mph (3:17 pm)
Weather ElementAverage
Visibility4 mi
Wind DirectionSSW (194.2 °)

Weather ElementTotal
Precipitation---
Heating Degree Days15 (Base 65)
Averaged from 33 records on February 1, 2013
WEATHER CONDITIONS BREAKOUT
WIND DIRECTION BREAKOUT
WEATHER BY HOUR - FEBRUARY 1, 2013
[ °C ]   °F
Local TimeTemperatureDewpointHumidityBarometerVisibilityWind DirectionWind SpeedGust SpeedPrecipitationEventsConditions
1:00 AM48.2 °F41.0 °F76 %30.35 in6.2 miNW (320°)2.3 mphOvercast
2:00 AM46.4 °F41.0 °F81 %30.33 in5.6 miNNW (340°)2.3 mphOvercast
3:00 AM44.6 °F42.8 °F93 %30.33 in3.7 miNW (310°)3.5 mphRainLight Rain
4:00 AM46.4 °F42.8 °F87 %30.29 in3.7 miNNW (330°)2.3 mphRainLight Rain
5:00 AM44.6 °F42.8 °F93 %30.24 in3.7 miWNW (300°)3.5 mphRainLight Rain
6:00 AM44.6 °F42.8 °F93 %30.24 inNNE (30°)2.3 mphRainLight Rain
7:00 AM46.4 °F44.6 °F93 %30.21 inENE (70°)3.5 mphRainLight Rain
7:08 AM48.2 °F46.4 °F93 %30.21 inSSE (160°)2.3 mphRainLight Rain
8:00 AM51.8 °F46.4 °F82 %30.21 inSSE (160°)8.1 mphRainLight Rain
8:28 AM51.8 °F46.4 °F82 %30.21 in2.5 miSouth (170°)11.5 mphRainLight Rain
8:35 AM53.6 °F46.4 °F77 %30.21 in2.5 miSouth (170°)9.2 mphRainRain
9:00 AM51.8 °F48.2 °F88 %30.18 in2.5 miSSE (150°)11.5 mphRainRain
9:28 AM53.6 °F48.2 °F82 %30.18 in2.5 miSSE (150°)11.5 mph17.3 mphRainRain
9:39 AM53.6 °F48.2 °F82 %30.18 in2.5 miSSE (160°)17.3 mph28.8 mphRainRain
10:00 AM53.6 °F48.2 °F82 %30.18 inSSE (150°)11.5 mphRainLight Rain
10:23 AM53.6 °F48.2 °F82 %30.15 in2.5 miSSE (150°)18.4 mphRainLight Rain
11:00 AM53.6 °F50.0 °F88 %30.15 inSSE (160°)17.3 mphRainLight Rain
12:00 PM53.6 °F50.0 °F88 %30.12 inSouth (180°)11.5 mphRainLight Rain
1:00 PM53.6 °F50.0 °F88 %30.06 inSouth (180°)12.7 mphRainLight Rain
2:00 PM55.4 °F51.8 °F88 %30.01 inSouth (180°)23.0 mph34.5 mphRainLight Rain
2:16 PM55.4 °F51.8 °F88 %29.98 inSouth (190°)19.6 mphRainRain
2:36 PM55.4 °F51.8 °F88 %29.98 inSSW (200°)28.8 mph40.3 mphRainLight Rain
3:00 PM55.4 °F51.8 °F88 %29.98 in1.0 miSSW (200°)28.8 mph40.3 mphRainRain
3:17 PM55.4 °F51.8 °F88 %29.95 in1.0 miSouth (190°)27.6 mph42.6 mphRainRain
4:00 PM55.4 °F51.8 °F88 %29.98 inSSW (200°)24.2 mph40.3 mphRainLight Rain
5:00 PM55.4 °F51.8 °F88 %29.95 inSSW (200°)24.2 mph40.3 mphRainLight Rain
6:00 PM55.4 °F51.8 °F88 %29.95 inSouth (190°)9.2 mphRainLight Rain
6:11 PM55.4 °F51.8 °F88 %29.95 in5.0 miSouth (190°)6.9 mphOvercast
7:00 PM55.4 °F53.6 °F94 %29.95 in5.6 miWSW (250°)6.9 mphOvercast
8:00 PM55.4 °F51.8 °F88 %29.98 in6.2 miSW (220°)12.7 mphMostly Cloudy
9:00 PM55.4 °F50.0 °F82 %30.01 in6.2 miSW (230°)9.2 mphScattered Clouds
10:00 PM51.8 °F48.2 °F88 %30.01 in6.2 miSSE (160°)5.8 mphPartly Cloudy
11:00 PM50.0 °F48.2 °F94 %30.01 in6.2 miSouth (170°)3.5 mphPartly Cloudy
Hourly data recorded from RKPK, located miles away from Masan, South Korea







STORIES FROM OUR PARTNERS